Volver al catálogo

STARLINK-37225

ActivoComunicacionesVLEO
NORAD 68714·PAYLOAD·🇺🇸 United States

Lanzado Apr 14, 2026 desde Cape Canaveral Space Force Station

Loading…

Próximos Pases (próximas 24 horas)

TLE

ActualizadoSource: CelesTrak SupGP

Época: Sep 15, 2026, 04:26 UTC

1 68714C 26081R   26258.18520833 -.00055370  00000+0 -16359-2 0  2581
2 68714  53.1586 230.5665 0001324  89.1668 232.0307 15.34417556    10

Sigue STARLINK-37225 en tiempo real con AllMySat

Download on the App Store